This is the latest recevied weather packets stored in our database for station/object KF0EZB. If no packets are shown the sender has not sent any weather packets the latest 10 day(s).
| Time | Temp. | Humidity | Pressure | Rain* | Wind** | Luminosity | Snow |
|---|---|---|---|---|---|---|---|
| 1777905458 | 20° C | 43% | 1003.9 hPa | 0 mm | - | 501 W/m² | - |
| 1777905155 | 20° C | 42% | 1003.6 hPa | 0 mm | - | 489 W/m² | - |
| 1777904852 | 18.89° C | 44% | 1003.8 hPa | 0 mm | - | 455 W/m² | - |
| 1777904549 | 18.89° C | 43% | 1003.9 hPa | 0 mm | - | 409 W/m² | - |
| 1777904246 | 18.33° C | 45% | 1003.8 hPa | 0 mm | - | 388 W/m² | - |
| 1777903943 | 17.78° C | 45% | 1004 hPa | 0 mm | - | 371 W/m² | - |
| 1777903640 | 17.78° C | 46% | 1003.7 hPa | 0 mm | - | 380 W/m² | - |
| 1777903335 | 17.22° C | 47% | 1003.8 hPa | 0 mm | - | 341 W/m² | - |
| 1777903033 | 17.22° C | 46% | 1003.8 hPa | 0 mm | - | 289 W/m² | - |
| 1777902729 | 16.67° C | 48% | 1003.9 hPa | 0 mm | - | 277 W/m² | - |
| 1777902426 | 16.11° C | 48% | 1003.8 hPa | 0 mm | - | 285 W/m² | - |
| 1777902123 | 16.11° C | 49% | 1003.6 hPa | 0 mm | - | 265 W/m² | - |
| 1777901821 | 15.56° C | 49% | 1003.8 hPa | 0 mm | - | 254 W/m² | - |
| 1777901518 | 15.56° C | 49% | 1003.9 hPa | 0 mm | - | 229 W/m² | - |
| 1777901216 | 15.56° C | 49% | 1003.8 hPa | 0 mm | - | 198 W/m² | - |
| 1777900913 | 15.56° C | 48% | 1003.7 hPa | 0 mm | - | 198 W/m² | - |
| 1777900610 | 15° C | 50% | 1003.8 hPa | 0 mm | - | 154 W/m² | - |
| 1777900307 | 14.44° C | 51% | 1003.7 hPa | 0 mm | - | 56 W/m² | - |
| 1777900004 | 13.89° C | 52% | 1003.8 hPa | 0 mm | - | 142 W/m² | - |
| 1777899700 | 13.89° C | 52% | 1003.8 hPa | 0 mm | - | 124 W/m² | - |
| 1777899398 | 13.89° C | 52% | 1004 hPa | 0 mm | - | 107 W/m² | - |
| 1777899096 | 13.89° C | 51% | 1003.8 hPa | 0 mm | - | 92 W/m² | - |
| 1777898792 | 14.44° C | 51% | 1003.9 hPa | 0 mm | - | 85 W/m² | - |
| 1777898490 | 13.89° C | 52% | 1004 hPa | 0 mm | - | 78 W/m² | - |
| 1777898188 | 13.89° C | 52% | 1004 hPa | 0 mm | - | 54 W/m² | - |
* Rain latest hour (hover to see other rain measurements)
** Current wind speed in m/s (hover to see current wind gust speed)